Powrót do katalogu

JILIN-01 GAOFEN 3H

AktywnyNaukaSSO
NORAD 46460·PAYLOAD·🇨🇳 China

Wystrzelony Sep 15, 2020 z Yellow Sea Launch Area

Loading…

Następne Przeloty (najbliższe 24 godziny)

TLE

ŚwieżeSource: Space-Track

Epoka: Sep 14, 2026, 13:50 UTC

1 46460U 20065G   26257.57659459  .00199083  00000-0  73229-3 0  9991
2 46460  97.2017 314.2682 0000583 306.4050  53.7168 15.87759905333968

Śledź JILIN-01 GAOFEN 3H w czasie rzeczywistym z AllMySat

Download on the App Store